Weather History for PGSN - December, 2011

Change the Weather History Date:

Sunday, December 4, 2011

  Actual Average Record
Temperature  
Mean Temperature 80 °F -  
Max Temperature 84 °F 84 °F 88 °F (2014)
Min Temperature 77 °F 76 °F 75 °F (2004)
Cooling Degree Days 16    
Growing Degree Days 30 (Base 50)    
Moisture  
Dew Point 77 °F    
Average Humidity 88    
Maximum Humidity 100    
Minimum Humidity 77    
Precipitation  
Precipitation 0.15 in - - ()
Sea Level Pressure  
Sea Level Pressure 29.92 in    
Wind  
Wind Speed 16 mph (ENE)    
Max Wind Speed 23 mph    
Max Gust Speed 30 mph    
Visibility 8 miles    
Events Rain    
Averages and records for this station are not official NWS values.
T = Trace of Precipitation, MM = Missing Value Source: NWS Daily Summary

Daily Weather History Graph

Daily Weather History Graph

Search for Another Location

Airport or City:

Trip Planner

Search our weather history database for the weather conditions in past years. The results will help you decide how hot, cold, wet, or windy it might be!

Date:

Astronomy

Dec. 04, 2011 Rise Set
Actual Time 6:28 AM ChST 5:45 PM ChST
Civil Twilight 6:05 AM ChST 6:08 PM ChST
Nautical Twilight 5:38 AM ChST 6:35 PM ChST
Astronomical Twilight 5:12 AM ChST 7:01 PM ChST
Moon 1:16 PM ChST 1:03 AM ChST
Length of Visible Light 12h 03m
Length of Day
11h 17m
Waxing Gibbous, 66% of the Moon is Illuminated
Dec 4
Waxing Gibbous
Dec 11
Full
Dec 18
Last Quarter
Dec 25
New
Jan 1
First Quarter

Hourly Weather History & Observations

Time (ChST) Temp. Heat Index Dew Point Humidity Pressure Visibility Wind Dir Wind Speed Gust Speed Precip Events Conditions
12:54 AM 81.0 °F 85.8 °F 73.0 °F 77% 29.92 in 10.0 mi ENE 17.3 mph - N/A   Scattered Clouds
1:54 AM 81.0 °F 86.2 °F 73.9 °F 79% 29.90 in 10.0 mi ENE 13.8 mph - N/A   Scattered Clouds
2:54 AM 80.1 °F 84.2 °F 73.0 °F 79% 29.90 in 10.0 mi ENE 18.4 mph 24.2 mph N/A   Scattered Clouds
3:54 AM 81.0 °F 86.2 °F 73.9 °F 79% 29.88 in 10.0 mi ENE 17.3 mph - N/A   Scattered Clouds
4:54 AM 81.0 °F 86.2 °F 73.9 °F 79% 29.90 in 10.0 mi East 20.7 mph 26.5 mph N/A   Mostly Cloudy
5:54 AM 79.0 °F - 75.9 °F 90% 29.92 in 10.0 mi East 23.0 mph 27.6 mph N/A   Mostly Cloudy
6:30 AM 77.0 °F - 75.2 °F 94% 29.88 in 3.0 mi East 18.4 mph 29.9 mph 0.00 in Rain Rain
6:54 AM 77.0 °F - 75.9 °F 96% 29.95 in 4.0 mi ESE 11.5 mph - 0.01 in Rain Light Rain
7:54 AM 77.0 °F - 75.9 °F 96% 29.96 in 7.0 mi ESE 9.2 mph - 0.04 in Rain Light Rain
7:56 AM 77.0 °F - 77.0 °F 100% 29.90 in 5.0 mi ESE 10.4 mph - 0.00 in Rain Light Rain
8:10 AM 77.0 °F - 77.0 °F 100% 29.91 in 1.2 mi SE 13.8 mph 20.7 mph 0.02 in Rain Rain
8:41 AM 77.0 °F - 77.0 °F 100% 29.93 in 10.0 mi East 6.9 mph - 0.05 in   Overcast
8:54 AM 77.0 °F - 77.0 °F 100% 29.99 in 10.0 mi East 9.2 mph - 0.05 in   Overcast
9:54 AM - - - N/A% 29.92 in 10.0 mi NE 12.7 mph - N/A   Scattered Clouds
10:54 AM 82.9 °F 92.8 °F 78.1 °F 85% 29.97 in 10.0 mi ENE 13.8 mph - N/A   Scattered Clouds
11:54 AM 84.9 °F 96.6 °F 78.1 °F 80% 29.95 in 10.0 mi ENE 15.0 mph - N/A   Scattered Clouds
12:32 PM 84.2 °F 96.1 °F 78.8 °F 84% 29.87 in 10.0 mi ENE 13.8 mph - N/A   Mostly Cloudy
12:40 PM 84.2 °F 96.1 °F 78.8 °F 84% 29.87 in 10.0 mi ENE 18.4 mph - N/A   Mostly Cloudy
12:54 PM 84.9 °F 96.6 °F 78.1 °F 80% 29.93 in 10.0 mi ENE 17.3 mph - N/A   Mostly Cloudy
1:54 PM 82.0 °F 91.0 °F 78.1 °F 88% 29.92 in 4.0 mi East 13.8 mph 19.6 mph N/A   Overcast
2:54 PM 82.9 °F 90.8 °F 75.9 °F 79% 29.91 in 7.0 mi ENE 15.0 mph - 0.01 in Rain Rain
3:15 PM 80.6 °F 88.1 °F 78.8 °F 94% 29.84 in 8.0 mi NE 10.4 mph - 0.01 in   Mostly Cloudy
3:54 PM 82.0 °F 89.4 °F 75.9 °F 82% 29.91 in 8.0 mi ENE 15.0 mph - 0.01 in Rain Light Rain
4:04 PM 82.4 °F 90.9 °F 77.0 °F 84% 29.85 in 10.0 mi ENE 11.5 mph - 0.00 in Rain Light Rain
4:54 PM 82.0 °F 90.2 °F 77.0 °F 85% 29.92 in 10.0 mi NE 15.0 mph - 0.00 in   Mostly Cloudy
5:54 PM 82.0 °F 90.2 °F 77.0 °F 85% 29.93 in 10.0 mi NE 11.5 mph - N/A   Overcast
6:54 PM 80.1 °F 86.4 °F 78.1 °F 94% 29.94 in 8.0 mi ENE 17.3 mph 24.2 mph 0.01 in Rain Light Rain
7:54 PM 80.1 °F 86.4 °F 78.1 °F 94% 29.96 in 10.0 mi ENE 20.7 mph - 0.00 in   Mostly Cloudy
8:16 PM 80.6 °F 87.1 °F 77.0 °F 89% 29.90 in 2.5 mi ENE 19.6 mph - 0.01 in Rain Rain
8:34 PM 80.6 °F 87.1 °F 77.0 °F 89% 29.90 in 7.0 mi ENE 19.6 mph - 0.02 in Rain Light Rain
8:54 PM 80.1 °F 85.8 °F 77.0 °F 90% 29.97 in 10.0 mi ENE 19.6 mph - 0.02 in   Mostly Cloudy
9:54 PM 79.0 °F - 77.0 °F 94% 29.90 in 10.0 mi ENE 19.6 mph - N/A   Mostly Cloudy
10:01 PM 78.8 °F - 77.0 °F 94% 29.90 in 10.0 mi NE 12.7 mph - N/A   Mostly Cloudy
10:54 PM 79.0 °F - 77.0 °F 94% 29.96 in 10.0 mi NE 12.7 mph - N/A   Overcast
11:54 PM 80.1 °F 85.8 °F 77.0 °F 90% 29.95 in 10.0 mi ENE 16.1 mph - 0.00 in Rain Light Rain
11:56 PM - - - N/A% 29.88 in 7.0 mi North - - 0.00 in Rain Light Rain